This is the latest recevied weather packets stored in our database for station/object SV9TNF-1. If no packets are shown the sender has not sent any weather packets the latest 10 day(s).
| Time | Temp. | Humidity | Pressure | Rain* | Wind** | Luminosity | Snow |
|---|---|---|---|---|---|---|---|
| 1777731051 | 14.44° C | 57% | 1004.1 hPa | 0 mm | 0.45 m/s, 131° | - | - |
| 1777730751 | 14.44° C | 58% | 1004.1 hPa | 0 mm | 1.79 m/s, 120° | - | - |
| 1777730450 | 14.44° C | 58% | 1004.1 hPa | 0 mm | 0 m/s | - | - |
| 1777730150 | 14.44° C | 58% | 1004.1 hPa | 0 mm | 1.79 m/s, 160° | - | - |
| 1777729850 | 14.44° C | 58% | 1004.1 hPa | 0 mm | 1.34 m/s, 144° | - | - |
| 1777729550 | 14.44° C | 57% | 1003.7 hPa | 0 mm | 1.79 m/s, 123° | - | - |
| 1777729250 | 14.44° C | 58% | 1003.7 hPa | 0 mm | 3.13 m/s, 138° | - | - |
| 1777728950 | 14.44° C | 57% | 1004.1 hPa | 0 mm | 2.68 m/s, 110° | - | - |
| 1777728650 | 14.44° C | 58% | 1004.1 hPa | 0 mm | 1.79 m/s, 160° | - | - |
| 1777728350 | 14.44° C | 58% | 1004.1 hPa | 0 mm | 1.79 m/s, 146° | - | - |
| 1777728050 | 14.44° C | 57% | 1004.1 hPa | 0 mm | 1.79 m/s, 98° | - | - |
| 1777727750 | 15° C | 56% | 1004.1 hPa | 0 mm | 1.79 m/s, 130° | - | - |
| 1777727450 | 15.56° C | 56% | 1004.1 hPa | 0 mm | 1.34 m/s, 141° | - | - |
| 1777727149 | 15.56° C | 57% | 1004.1 hPa | 0 mm | 1.34 m/s, 134° | - | - |
| 1777726850 | 15.56° C | 54% | 1004.1 hPa | 0 mm | 2.68 m/s, 128° | - | - |
| 1777726549 | 15.56° C | 54% | 1004.1 hPa | 0 mm | 2.24 m/s, 135° | - | - |
| 1777726249 | 15.56° C | 58% | 1004.1 hPa | 0 mm | 1.34 m/s, 138° | - | - |
| 1777725949 | 15.56° C | 54% | 1004.1 hPa | 0 mm | 1.34 m/s, 121° | - | - |
| 1777725649 | 15.56° C | 54% | 1004.1 hPa | 0 mm | 1.79 m/s, 131° | - | - |
| 1777725349 | 15° C | 53% | 1004.1 hPa | 0 mm | 1.79 m/s, 132° | - | - |
| 1777725051 | 15° C | 55% | 1004.1 hPa | 0 mm | 2.24 m/s, 105° | - | - |
| 1777724749 | 15° C | 57% | 1004.1 hPa | 0 mm | 3.13 m/s, 219° | - | - |
| 1777724449 | 14.44° C | 58% | 1004.1 hPa | 0 mm | 1.34 m/s, 154° | - | - |
| 1777724149 | 14.44° C | 57% | 1004.1 hPa | 0 mm | 2.68 m/s, 163° | - | - |
| 1777723848 | 14.44° C | 58% | 1004.1 hPa | 0 mm | 1.34 m/s, 123° | - | - |
* Rain latest hour (hover to see other rain measurements)
** Current wind speed in m/s (hover to see current wind gust speed)